This demonstration page uses our WeatherBlox Daily Observations layout. Learn more.

40.92945, -100.16068

Hourly Observations for October 9, 2019

Temp ( °F °C ) Dew Point ( °F °C ) Humidity (%) Winds ( mph kmh ) Pressure ( in mb ) Visibility ( mi km ) Precip ( " mm )
12:15 am 00:15 Clear 58 14.7 49 9.2 70 70 S 15 24 29.74 1007 10 16.0934 0 0
12:35 am 00:35 Clear 58 14.7 49 9.2 70 70 S 16 26 29.73 1007 10 16.0934 0 0
12:55 am 00:55 Clear 58 14.5 49 9.2 71 71 S 15 24 29.72 1006 10 16.0934 0 0
1:15 am 01:15 Clear 57 14 49 9.2 73 73 SSE 14 22 29.73 1007 10 16.0934 0 0
1:35 am 01:35 Clear 57 13.7 49 9.2 74 74 SSE 15 24 29.73 1007 10 16.0934 0 0
1:55 am 01:55 Clear 56 13.4 49 9.2 76 76 SSE 12 19 29.73 1007 10 16.0934 0 0
2:15 am 02:15 Clear 56 13.2 49 9.3 77 77 SE 8 13 29.73 1007 10 16.0934 0 0
2:35 am 02:35 Clear 55 12.9 49 9.3 79 79 SSE 8 13 29.72 1007 10 16.0934 0 0
2:55 am 02:55 Clear 55 12.5 49 9.3 81 81 SSE 8 13 29.73 1007 10 16.0934 0 0
3:15 am 03:15 Clear 55 12.6 49 9.5 82 82 SSE 8 13 29.73 1007 10 16.0934 0 0
3:35 am 03:35 Clear 54 12.1 49 9.4 84 84 SSE 9 15 29.73 1007 10 16.0934 0 0
3:55 am 03:55 Clear 54 12.2 49 9.5 84 84 SSE 8 13 29.72 1006 10 16.0934 0 0
4:15 am 04:15 Clear 54 12.1 49 9.5 84 84 SSE 7 11 29.72 1007 10 16.0934 0 0
4:35 am 04:35 Clear 53 11.9 49 9.3 84 84 SSE 9 15 29.72 1007 10 16.0934 0 0
4:55 am 04:55 Clear 53 11.6 48 9.1 85 85 SSE 7 11 29.73 1007 10 16.0934 0 0
5:15 am 05:15 Clear 53 11.4 48 9.1 86 86 SE 6 9 29.73 1007 10 16.0934 0 0
5:35 am 05:35 Clear 53 11.6 48 9.1 85 85 SE 8 13 29.73 1007 10 16.0934 0 0
5:55 am 05:55 Clear 52 11.3 48 9 86 86 SE 7 11 29.72 1006 10 16.0934 0 0
6:15 am 06:15 Clear 51 10.3 47 8.6 89 89 SE 7 11 29.74 1007 10 16.0934 0 0
6:35 am 06:35 Clear 51 10.5 47 8.6 88 88 SE 6 9 29.74 1007 10 16.0934 0 0
6:55 am 06:55 Clear 51 10.5 47 8.5 88 88 SE 7 11 29.74 1007 10 16.0934 0 0
7:15 am 07:15 Clear 50 10.2 47 8.3 88 88 SE 6 9 29.74 1007 10 16.0934 0 0
7:35 am 07:35 Clear 50 9.8 47 8.1 89 89 SE 6 9 29.73 1007 10 16.0934 0 0
7:55 am 07:55 Sunny 50 10.2 47 8.1 87 87 SE 7 11 29.73 1007 10 16.0934 0 0
8:15 am 08:15 Sunny 51 10.5 47 8.1 85 85 SE 8 13 29.72 1006 10 16.0934 0 0
8:35 am 08:35 Sunny 51 10.5 47 8.3 86 86 SE 6 9 29.73 1007 10 16.0934 0 0
8:55 am 08:55 Sunny 52 11.1 47 8.5 84 84 SE 6 9 29.72 1006 10 16.0934 0 0
9:15 am 09:15 Sunny 55 12.6 48 8.9 78 78 SE 9 15 29.72 1006 10 16.0934 0 0
9:35 am 09:35 Sunny 58 14.2 49 9.2 72 72 SSE 13 20 29.7 1006 10 16.0934 0 0
9:55 am 09:55 Sunny 60 15.3 49 9.3 68 68 SSE 17 28 29.69 1006 10 16.0934 0 0
10:15 am 10:15 Sunny 60 15.6 49 9.3 66 66 SSE 15 24 29.7 1006 10 16.0934 0 0
10:35 am 10:35 Sunny 61 16.3 49 9.4 64 64 SSE 17 28 29.68 1005 10 16.0934 0 0
10:55 am 10:55 Sunny 62 16.6 49 9.4 63 63 SSE 17 28 29.68 1005 10 16.0934 0 0
11:15 am 11:15 Sunny 63 17.2 49 9.6 61 61 SSE 18 30 29.67 1005 10 16.0934 0 0
11:35 am 11:35 Sunny 64 17.7 50 9.9 60 60 SSE 13 20 29.66 1004 10 16.0934 0 0
11:55 am 11:55 Sunny 65 18.2 50 10.1 59 59 SSE 13 20 29.66 1004 10 16.0934 0 0
12:15 pm 12:15 Sunny 65 18.6 51 10.4 59 59 SSE 15 24 29.65 1004 10 16.0934 0 0
12:35 pm 12:35 Sunny 66 18.9 51 10.6 59 59 SE 14 22 29.65 1004 10 16.0934 0 0
12:55 pm 12:55 Sunny 67 19.3 51 10.6 57 57 SE 13 20 29.64 1004 10 16.0934 0 0
1:15 pm 13:15 Sunny 67 19.6 51 10.7 57 57 SSE 18 30 29.63 1003 10 16.0934 0 0
1:35 pm 13:35 Sunny 67 19.6 51 10.8 57 57 S 14 22 29.61 1003 10 16.0934 0 0
1:55 pm 13:55 Sunny 68 20 52 11.2 57 57 SE 14 22 29.6 1002 10 16.0934 0 0
2:15 pm 14:15 Sunny 68 20.1 52 11.1 56 56 SSE 12 19 29.59 1002 10 16.0934 0 0
2:35 pm 14:35 Partly Cloudy 68 20 52 11.2 57 57 SE 9 15 29.59 1002 10 16.0934 0 0
2:55 pm 14:55 Partly Cloudy 69 20.8 53 11.5 55 55 SE 12 19 29.58 1002 10 16.0934 0 0
3:15 pm 15:15 Sunny 69 20.3 53 11.5 57 57 SSE 9 15 29.58 1002 10 16.0934 0 0
3:35 pm 15:35 Mostly Cloudy 70 20.9 53 11.9 57 57 SE 12 19 29.57 1001 10 16.0934 0 0
3:55 pm 15:55 Cloudy 69 20.7 54 12 58 58 SE 12 19 29.57 1001 10 16.0934 0 0
4:15 pm 16:15 Mostly Cloudy 68 20.1 54 12 60 60 SE 10 17 29.57 1001 10 16.0934 0 0
4:35 pm 16:35 Mostly Cloudy 69 20.6 54 12.1 58 58 ESE 12 19 29.57 1001 10 16.0934 0 0
4:55 pm 16:55 Mostly Cloudy 69 20.3 54 12.2 60 60 E 10 17 29.58 1002 10 16.0934 0 0
5:15 pm 17:15 Cloudy 68 19.9 54 12.3 62 62 E 12 19 29.58 1002 10 16.0934 0 0
5:35 pm 17:35 Cloudy 67 19.2 54 12.3 64 64 E 13 20 29.6 1002 10 16.0934 0 0
5:55 pm 17:55 Cloudy 66 19 54 12.3 65 65 E 13 20 29.61 1003 10 16.0934 0 0
6:15 pm 18:15 Cloudy 65 18.6 55 12.5 68 68 E 10 17 29.62 1003 10 16.0934 0 0
6:35 pm 18:35 Cloudy 65 18.2 55 12.5 70 70 E 12 19 29.62 1003 10 16.0934 0 0
6:55 pm 18:55 Cloudy 64 18 55 12.5 70 70 E 10 17 29.63 1003 10 16.0934 0 0
7:15 pm 19:15 Cloudy 64 17.5 55 12.6 73 73 ENE 10 17 29.64 1004 10 16.0934 0 0
7:35 pm 19:35 Cloudy 63 17.2 55 12.7 75 75 ENE 12 19 29.67 1005 10 16.0934 0 0
7:55 pm 19:55 Cloudy 62 16.9 55 12.7 76 76 ENE 14 22 29.67 1005 10 16.0934 0 0
8:15 pm 20:15 Cloudy 62 16.6 55 13 79 79 E 12 19 29.68 1005 10 16.0934 0 0
8:35 pm 20:35 Cloudy 53 11.7 47 8.3 80 80 N 18 30 29.76 1008 10 16.0934 0 0
8:55 pm 20:55 Cloudy 50 10.1 46 7.5 84 84 NNE 20 31 29.78 1008 10 16.0934 0 0
9:15 pm 21:15 Cloudy 49 9.3 44 6.9 85 85 N 23 37 29.81 1009 10 16.0934 0 0
9:35 pm 21:35 Cloudy 48 8.7 44 6.5 86 86 N 16 26 29.83 1010 10 16.0934 0 0
9:55 pm 21:55 Cloudy 46 8 43 6 87 87 NNE 18 30 29.83 1010 10 16.0934 0 0
10:15 pm 22:15 Cloudy 46 7.7 43 6 89 89 NNE 16 26 29.84 1011 10 16.0934 0 0
10:35 pm 22:35 Cloudy 45 7.2 42 5.6 90 90 N 23 37 29.85 1011 10 16.0934 0 0
10:55 pm 22:55 Cloudy with Light Drizzle 44 6.7 42 5.5 92 92 N 18 30 29.86 1011 7 11.26538 0 0
11:15 pm 23:15 Cloudy with Light Rain 44 6.5 42 5.5 93 93 NNE 14 22 29.85 1011 5 8.0467 0 0
11:35 pm 23:35 Cloudy with Light Rain 43 6.3 42 5.6 95 95 NNE 21 33 29.85 1011 5 8.0467 0 0
11:55 pm 23:55 Cloudy with Light Drizzle 43 6.3 42 5.6 95 95 NNE 16 26 29.87 1011 5 8.0467 0 0

Powered by AerisWeather